Regional Weather Roundup
Issued by NWS

Home | Current Version | Previous Version | Text Only | Print | Product List | Glossary Off
Versions: 1 2 3 4 5 6 7 8 9 10 11 12 13 14 15 16 17 18 19 20 21 22 23 24 25 26 27 28 29 30 31 32 33 34 35 36 37 38 39 40 41 42 43 44 45 46 47 48 49 50

000
ASUS43 KLOT 041510
RWRIL

ILLINOIS REGIONAL WEATHER ROUNDUP
NATIONAL WEATHER SERVICE CHICAGO/ROMEOVILLE IL
900 AM CST WED MAR 04 2015

NOTE: "FAIR" INDICATES FEW OR NO CLOUDS BELOW 12,000 FEET WITH NO
SIGNIFICANT WEATHER AND/OR OBSTRUCTIONS TO VISIBILITY.

* THESE STATIONS ARE NOT UNDER NWS QUALITY CONTROL. THEY ALSO MAY NOT
  REPORT WEATHER SUCH AS PRECIPITATION OR FOG.

ILZ001-002-007-009-015-016-024-041600-
NORTHWEST ILLINOIS

CITY           SKY/WX    TMP DP  RH WIND       PRES   REMARKS
MOLINE         PTSUNNY   14   1  56 NW15      30.21R WCI  -1
STERLING*      PTSUNNY   16   5  62 NW9       30.16R WCI   4
SAVANNA*       MOSUNNY   13   1  58 NW13      30.17R WCI  -1
$$

ILZ003-004-008-010-011-017-018-041600-
NORTH CENTRAL ILLINOIS

CITY           SKY/WX    TMP DP  RH WIND       PRES   REMARKS
ROCKFORD       PTSUNNY   13   2  61 NW16      30.14R WCI  -3
FREEPORT*      MOSUNNY   10   1  66 NW12G23   30.15R WCI  -4
ROCHELLE*      CLOUDY    13   4  67 NW14      30.13R WCI  -2
DE KALB*       CLOUDY    13   6  75 NW14      30.10R WCI  -2
PERU*          CLOUDY    14   7  72 NW14G20   30.17R WCI   0
$$

ILZ005-006-012>014-019>023-041600-
NORTHEAST ILLINOIS

CITY           SKY/WX    TMP DP  RH WIND       PRES   REMARKS
CHICAGO-OHARE  CLOUDY    18   9  68 NW14      30.07R WCI   4
CHICAGO-MIDWAY PTSUNNY   22  11  62 NW15      30.08R WCI   9
AURORA         CLOUDY    15   7  70 NW17      30.11R WCI  -1
LANSING*       SUNNY     22  14  70 NW8       30.08R WCI  13
JOLIET*        CLOUDY    16   8  68 NW10G18   30.12R WCI   4
WAUKEGAN       MOSUNNY   17   8  67 NW12G18   30.06R WCI   4
DUPAGE AIRPORT CLOUDY    16   8  71 NW13      30.08R WCI   2
KANKAKEE*      SUNNY     18  11  74 NW14      30.10R WCI   4
WHEELING       CLOUDY    18   8  65 NW12      30.09R WCI   5
MORRIS*        CLOUDY    16   9  76 NW14      30.12R WCI   1
ROMEOVILLE*    CLOUDY    17   9  70 NW10      30.10R WCI   5
NORTHERLY ISL    N/A     22  12  65 NW7         N/A  WCI  14
$$

LMZ740>746-041600-
SOUTHERN LAKE MICHIGAN

STATION/POSITION SKY/WX   TEMP    WIND        PRES    VSBY  WAVE
                          AIR SEA DIR/SP/G                  HT/PER
                          (F)     (DEG/KT/KT) (MB)    (MI)  (FT/S)
WAUKEGAN HARBOR            17                   N/A
HARRISON CRIB              20     300/ 14/ 16   N/A
BURNHAM HARBOR             22     300/  9/ 14   N/A
CALUMET HARBOR             22     270/  8/ 12 1016.9F
MICHIGAN CITY              23     300/ 13/ 16   N/A
$$

ILZ025>027-034>036-040-047-049-050-058-095>099-041600-
WEST-CENTRAL ILLINOIS

CITY           SKY/WX    TMP DP  RH WIND       PRES   REMARKS
QUINCY         CLOUDY    16   3  56 NW16      30.24R WCI   1
GALESBURG*     CLOUDY    13   4  68 NW10      30.21R WCI   0
MACOMB*        CLOUDY    15   7  71 NW21      30.23R WCI  -3
JACKSONVILLE*  CLOUDY    17   6  60 NW17      30.20R WCI   2
PITTSFIELD*    CLOUDY    18   5  58 NW14G21   30.23R WCI   4
$$

ILZ028>032-037-038-041>044-048-051>054-059>061-041600-
CENTRAL ILLINOIS

CITY           SKY/WX    TMP DP  RH WIND       PRES   REMARKS
PONTIAC        CLOUDY    15   9  76 NW14      30.14R WCI   0
BLOOMINGTON    MOSUNNY   15   7  71 NW15      30.13R WCI   0
DECATUR        CLOUDY    17   8  67 NW14      30.15R WCI   3
PEORIA         CLOUDY    16   3  56 NW10G20   30.18R WCI   4
LACON*         CLOUDY    13   4  65 NW13      30.18R WCI  -1
LINCOLN*       PTSUNNY   17   7  64 NW8G18    30.20R WCI   7
SPRINGFIELD    CLOUDY    17   5  59 NW12      30.18R WCI   4
TAYLORVILLE    CLOUDY    18   9  68 NW15G21   30.17R WCI   3
$$

ILZ033-039-045-046-055>057-062-063-041600-
EAST-CENTRAL ILLINOIS

CITY           SKY/WX    TMP DP  RH WIND       PRES   REMARKS
CHAMPAIGN      CLOUDY    16   8  71 NW20      30.11R WCI  -1
DANVILLE*      PTSUNNY   18  12  77 NW13G21   30.06S WCI   4
RANTOUL*       PTSUNNY   17  10  74 NW18      30.11R WCI   1
MATTOON        CLOUDY    19  13  77 NW16      30.12R WCI   4
PARIS*         CLOUDY    20  15  81 NW14      30.11R WCI   6
$$

ILZ079-100>102-041600-
SOUTHWEST ILLINOIS

CITY           SKY/WX    TMP DP  RH WIND       PRES   REMARKS
ALTON          CLOUDY    19   9  63 NW16      30.20R WCI   5
BELLEVILLE     CLOUDY    22  13  67 NW18      30.18R WCI   8
CAHOKIA*       CLOUDY    23  12  62 N15       30.20R WCI  10
SPARTA*        CLOUDY    26  17  69 N16G23    30.16R WCI  13
$$

ILZ064>066-069>071-074>076-080>082-084>086-088>090-092>094-041600-
SOUTH-CENTRAL ILLINOIS

CITY           SKY/WX    TMP DP  RH WIND       PRES   REMARKS
CARBONDALE     FRZ RAIN  29  25  85 N16       30.10R WCI  17
CAIRO*         LGT SNOW N/A N/A N/A N12       30.07R
EFFINGHAM*     CLOUDY    22  13  69 W16       30.16R WCI   8
MARION         LGT RAIN  32  28  86 N17       30.10R WCI  21
MT. VERNON     CLOUDY    28  19  69 N8        30.11R WCI  20
CENTRALIA*     CLOUDY    24  18  77 N16G24    30.13R WCI  11
SALEM*         CLOUDY    26  20  78 NW16      30.12S WCI  13
METROPOLIS*    RAIN      35  35 100 N12G17    30.06R WCI  27
$$

ILZ067-068-072-073-078-083-087-091-041600-
SOUTHEAST ILLINOIS

CITY           SKY/WX    TMP DP  RH WIND       PRES   REMARKS
LAWRENCEVILLE  CLOUDY    32  28  85 N16       30.08R WCI  21
FLORA*         CLOUDY    26  19  75 N16       30.12R WCI  14
FAIRFIELD*     CLOUDY    30  26  84 N12       30.09R WCI  20
HARRISBURG*    CLOUDY    34  33  96 N10       30.08R FOG     WCI  26
ROBINSON*      CLOUDY    29  24  82 NW17      30.10R WCI  17
CARMI*         CLOUDY    34  33  96 NW14G23   30.07R FOG     WCI  25
$$

ABBREVIATIONS USED IN REMARKS
   TC - TEMPERATURE IN CELSIUS
  WCI - WIND CHILL INDEX
   HX - HEAT INDEX
  VSB - VISIBILITY
$$




USA.gov is the U.S. government's official web portal to all federal, state and local government web resources and services.